[[{"header":{"parameterUnit":"m.s-1","parameterCategory":1,"la1":30.2992,"la2":30.254,"lo1":-89.0895,"lo2":-89.0443,"dy":0.0025,"dx":0.0025,"nx":19,"ny":19,"refTime":"2026-05-24T03:00:00:Z","depth":0,"parameterNumber":2,"parameterNumberName":"U-component_of_WINDS"},"data":[0,0,0,1.7595,1.759,1.7355,1.7354,1.7085,1.7083,0,0,0,0,0,0,0,0,0,0,0,1.7694,1.7694,1.7595,1.759,1.7355,1.7353,1.7086,1.7083,0,0,0,0,0,0,0,0,0,0,0,1.7695,1.7694,1.7693,1.7589,1.7355,1.7353,1.7086,1.725,0,0,0,0,0,0,0,0,0,0,1.7472,1.7596,1.7694,1.7693,1.7588,1.7355,1.7353,1.7257,1.724,1.7209,0,1.7199,0,1.7138,1.7068,1.7068,0,0,0,1.7565,1.7611,1.7521,1.7693,1.7586,1.7356,1.7454,1.7247,1.7227,1.7186,1.7194,1.7183,1.7133,1.7067,1.7066,1.699,1.6991,0,0,1.7579,1.7666,1.7535,1.751,1.7559,1.7462,1.7447,1.7234,1.7245,1.7193,1.7176,1.7129,1.7065,1.7064,1.6989,1.699,0,0,0,1.7632,1.7676,1.7591,1.7522,1.7478,1.7456,1.7439,1.7255,1.722,1.7173,1.7126,1.7064,1.7061,1.6988,1.6989,1.7116,0,0,0,1.7639,1.7708,1.7598,1.7649,1.7483,1.7365,1.7465,1.7235,1.7208,1.7127,1.7064,1.7059,1.6987,1.6989,1.7111,1.7161,0,0,0,1.7699,1.7714,1.7691,1.7654,1.7557,1.7367,1.7319,1.7227,1.718,1.7067,1.7059,1.6986,1.6988,1.7106,1.7152,1.7165,0,0,0,1.7787,1.7806,1.7695,1.7696,1.756,1.745,1.7319,1.7231,1.715,1.7063,1.6987,1.6989,1.7104,1.7147,1.7161,1.7192,1.7215,0,0,1.7859,1.7818,1.7811,1.7705,1.7639,1.7479,1.7425,1.7265,1.7169,1.7052,1.7049,1.7113,1.7152,1.7164,1.7308,1.7327,0,0,0,1.7863,1.786,1.7823,1.7753,1.7634,1.7533,1.7372,1.731,1.7207,1.7131,1.7118,1.7138,1.7142,1.7152,1.7168,1.7163,1.6998,1.6998,1.6998,1.8093,1.7974,1.7953,1.7805,1.7736,1.7568,1.7499,1.7385,1.7283,1.7281,1.7246,1.7349,1.7365,1.7376,1.7373,1.7253,1.7254,1.7254,1.7254,1.8187,1.8162,1.8024,1.7956,1.7826,1.7763,1.7597,1.7525,1.7441,1.7367,1.7363,1.7293,1.7401,1.7391,1.7263,1.7261,1.726,1.7259,1.7259,1.8323,1.829,1.8219,1.8101,1.8021,1.7865,1.7792,1.7675,1.7562,1.7559,1.7506,1.7503,1.7484,1.7542,1.7543,1.7543,1.7543,1.7543,1.7544,1.8494,1.8409,1.8367,1.8239,1.8175,1.8075,1.7901,1.7831,1.7723,1.7642,1.7641,1.7535,1.7435,1.7412,1.7549,1.7548,1.7547,1.7547,1.7546,1.8634,1.8583,1.8519,1.8455,1.829,1.8216,1.8066,1.7933,1.7857,1.7823,1.7715,1.7662,1.7609,1.7595,1.7575,1.7745,1.7745,1.7745,1.7745,1.875,1.8712,1.8616,1.8522,1.8414,1.8271,1.8189,1.805,1.7896,1.7839,1.7796,1.7759,1.7751,1.7702,1.7686,1.7665,1.7854,1.7854,1.7854,1.8827,1.8773,1.8733,1.8589,1.845,1.833,1.8248,1.8135,1.7949,1.7856,1.779,1.7786,1.7724,1.7712,1.7621,1.76,1.7559,0,0]},{"header":{"parameterUnit":"m.s-1","parameterCategory":1,"la1":30.2992,"la2":30.254,"lo1":-89.0895,"lo2":-89.0443,"dy":0.0025,"dx":0.0025,"nx":19,"ny":19,"refTime":"2026-05-24T03:00:00:Z","depth":0,"parameterNumber":3,"parameterNumberName":"V-component_of_WINDS"},"data":[0,0,0,3.343,3.3429,3.3365,3.3365,3.3289,3.3288,0,0,0,0,0,0,0,0,0,0,0,3.3454,3.3454,3.343,3.3428,3.3365,3.3365,3.3289,3.3288,0,0,0,0,0,0,0,0,0,0,0,3.3454,3.3454,3.3453,3.3428,3.3365,3.3365,3.3289,3.3335,0,0,0,0,0,0,0,0,0,0,3.3395,3.3424,3.3454,3.3453,3.3428,3.3365,3.3365,3.3337,3.3332,3.3321,0,3.3314,0,3.33,3.3284,3.3284,0,0,0,3.3424,3.3428,3.3406,3.3453,3.3427,3.3365,3.3392,3.3334,3.3328,3.3314,3.3313,3.331,3.3299,3.3283,3.3283,3.3234,3.3234,0,0,3.3428,3.3445,3.341,3.3402,3.3415,3.3394,3.339,3.3331,3.333,3.3312,3.3308,3.3297,3.3283,3.3282,3.3234,3.3234,0,0,0,3.3441,3.3448,3.3427,3.3406,3.3394,3.3393,3.3388,3.3332,3.3324,3.3307,3.3296,3.3282,3.3282,3.3234,3.3234,3.3248,0,0,0,3.3443,3.3456,3.3429,3.3439,3.3395,3.3363,3.3391,3.3328,3.3321,3.3297,3.3282,3.3281,3.3234,3.3234,3.3248,3.3252,0,0,0,3.3456,3.3457,3.345,3.344,3.3414,3.3363,3.3351,3.3326,3.3315,3.3283,3.3281,3.3234,3.3234,3.3248,3.3252,3.3242,0,0,0,3.3476,3.3465,3.345,3.3434,3.3414,3.3373,3.3352,3.332,3.3295,3.3282,3.3234,3.3234,3.3247,3.3251,3.3242,3.3237,3.3237,0,0,3.3472,3.3466,3.3454,3.3439,3.3405,3.3382,3.3349,3.331,3.329,3.3253,3.3252,3.3248,3.3251,3.3242,3.3233,3.3233,0,0,0,3.3459,3.3451,3.3438,3.3415,3.3384,3.3357,3.3321,3.3305,3.3272,3.3276,3.3242,3.3244,3.3238,3.3234,3.3234,3.3226,3.3233,3.3233,3.3233,3.348,3.3454,3.3433,3.3399,3.3377,3.3337,3.3316,3.3288,3.3271,3.3263,3.3252,3.3249,3.3246,3.3246,3.3238,3.3248,3.3248,3.3248,3.3248,3.347,3.3454,3.3428,3.3398,3.337,3.3344,3.3304,3.3292,3.3262,3.3257,3.325,3.3245,3.3247,3.3238,3.3249,3.3249,3.3249,3.3249,3.3249,3.348,3.3468,3.3449,3.341,3.3382,3.3348,3.3319,3.3295,3.3273,3.3266,3.3249,3.3249,3.3244,3.326,3.326,3.326,3.326,3.326,3.326,3.3498,3.3475,3.3455,3.3419,3.3398,3.3369,3.3326,3.3305,3.3275,3.326,3.326,3.3241,3.3252,3.3255,3.326,3.326,3.326,3.326,3.326,3.3496,3.3492,3.346,3.344,3.3393,3.3365,3.3334,3.3292,3.3271,3.3257,3.3238,3.3251,3.3242,3.3242,3.3244,3.3246,3.3246,3.3246,3.3246,3.3503,3.3496,3.3456,3.3424,3.3391,3.3358,3.3319,3.3284,3.3248,3.3232,3.3228,3.3229,3.323,3.322,3.322,3.3221,3.3218,3.3217,3.3217,3.3499,3.3487,3.346,3.3425,3.3385,3.335,3.3312,3.3274,3.3232,3.3216,3.3219,3.322,3.322,3.3222,3.3207,3.3208,3.3209,0,0]}]]